Regional Weather Roundup
Issued by NWS

Home | Current Version | Previous Version | Graphics & Text | Print | Product List | Glossary On
Versions: 1 2 3 4 5 6 7 8 9 10 11 12 13 14 15 16 17 18 19 20 21 22 23 24 25 26 27 28 29 30 31 32 33 34 35 36 37 38 39 40 41 42 43 44 45 46 47 48 49 50
000
ASUS43 KLSX 272159
RWRMO

WEATHER SUMMARY FOR MISSOURI
NATIONAL WEATHER SERVICE SPRINGFIELD MO
500 PM CDT WED MAY 27 2015

NOTE: "FAIR" INDICATES FEW OR NO CLOUDS BELOW 12,000 FEET WITH NO
       SIGNIFICANT WEATHER AND/OR OBSTRUCTIONS TO VISIBILITY.
       CURRENT SKY AND/OR WEATHER CONDITIONS ARE NOT AVAILABLE FOR
       CHILLICOTHE AND FARMINGTON.

MOZ001>031-035>038-043-044-053-054-272300-
...NORTHERN AND WESTERN MISSOURI...

CITY           SKY/WX    TMP DP  RH WIND       PRES   REMARKS
KANSAS CTY INT PTSUNNY   80  54  40 S8        30.08F
KANSAS C DTWN  SUNNY     83  51  33 SE8       30.06F
LEE`S SUMMIT   MOSUNNY   82  54  37 SE3       30.08F
ST JOSEPH      MOSUNNY   82  47  29 VRB5      30.07S
KIRKSVILLE     SUNNY     82  56  40 W5        30.09S

$$
MOZ066>068-077>081-088>096-101>105-272300-
...SOUTHWEST MISSOURI...

CITY           SKY/WX    TMP DP  RH WIND       PRES   REMARKS
SPRINGFIELD    PTSUNNY   81  63  54 CALM      30.08S
JOPLIN         PTSUNNY   85  66  53 CALM      30.06F

$$
MOZ032>034-039>042-045>050-055>058-069>072-272300-
...CENTRAL MISSOURI...

CITY           SKY/WX    TMP DP  RH WIND       PRES   REMARKS
COLUMBIA       SUNNY     81  54  39 NE5       30.08F
JEFFERSON CITY SUNNY     82  50  32 CALM      30.07S
ROLLA          SUNNY     79  58  48 NW7       30.08F
SEDALIA        MOSUNNY   82  54  37 CALM      30.09F

$$
MOZ051-052-059>065-272300-
...EAST CENTRAL MISSOURI...

CITY           SKY/WX    TMP DP  RH WIND       PRES   REMARKS
ST LOUIS INTL  MOSUNNY   84  56  38 W10       30.07S
SPIRIT OF STL  SUNNY     82  58  43 NW9       30.06S
ST CHARLES     SUNNY     82  60  47 NW9       30.06S

$$
MOZ072>076-082>087-097>100-106>115-272300-
...SOUTH CENTRAL AND SOUTHEAST MISSOURI...

CITY           SKY/WX    TMP DP  RH WIND       PRES   REMARKS
CAPE GIRARDEAU CLOUDY    76  69  79 S10       30.07F
FARMINGTON     PTSUNNY   81  66  61 S7        30.11F
POPLAR BLUFF   CLOUDY    80  68  66 SW7       30.06F
WEST PLAINS    SUNNY     81  62  52 W3        30.09F

$$



USA.gov is the U.S. government's official web portal to all federal, state and local government web resources and services.